Volver al catálogo

HULIANWANG DIGUI-83

ActivoComunicacionesPO
NORAD 65818·PAYLOAD·🇨🇳 China

Lanzado Sep 27, 2025 desde Taiyuan Satellite Launch Center

Loading…

Próximos Pases (próximas 24 horas)

TLE

ActualizadoSource: Space-Track

Época: Sep 14, 2026, 07:17 UTC

1 65818U 25220B   26257.30378983  .00000034  00000-0  43958-4 0  9992
2 65818  86.5053  13.8428 0001416  85.2343 274.8953 13.24411297 46710

Sigue HULIANWANG DIGUI-83 en tiempo real con AllMySat

Download on the App Store